ホームズ彗星

17P/Holmes (2021)

English version
Home page
Updated on July 24, 2022

---------------------------------------------------------------------

・ プロフィール

・ 写真集

・ 軌道要素

Epoch 2022 Jan. 21.0 TT = JDT 2459600.5
T 2021 Feb. 19.87829 TT                                 Rudenko
q   2.0811036            (2000.0)            P               Q
n   0.14216078     Peri.   24.49590     +0.97553760     +0.12704203
a   3.6359357      Node   326.62158     -0.21281476     +0.75033045
e   0.4276291      Incl.   19.03194     +0.05510232     +0.64874073
P   6.93
From 2193 observations 2011 Jan. 5-2022 Jan. 30, mean residual 0".7.

・ 星図

・ 光度変化

        m1 =  11.5 + 5 logΔ + 12.0 log r  [    ,-240]  (              〜2020年 6月24日)
        m1 =   1.5 + 5 logΔ + 35   log r  [-240, 163]  (2020年 6月24日〜2021年 8月 1日)
        m1 = -11.0 + 5 logΔ + 60   log r  [ 163, 248]  (2021年 8月 1日〜2021年10月25日)
        m1 =   8.8 + 5 logΔ + 15.0 log r  [ 248,    ]  (2021年10月25日〜              )

---------------------------------------------------------------------

軌道要素はM.P.E.C. 2022-C56に掲載されたものです。
星図はステラナビゲータ Ver.8 (アストロアーツ) で作成したものです。
光度グラフはComet for Windowsで作成したものです。

---------------------------------------------------------------------

Copyright(C) Seiichi Yoshida (comet@aerith.net). All rights reserved.